Location: *
(2.5500°S, 65.9667°W)
Time: 03:27:09
(UTC+00:00)

Okean O Rocket - Pass Details

Date: 06 June 2022
Orbit: 623 x 643 km, 98.2° (Epoch: 04 July)

Event Time Altitude Azimuth Distance (km) Brightness Sun altitude
Exits shadow 23:40:53 23° 169° (SSE) 1,327 2.9 -19.0°
Maximum altitude 23:43:34 89° 260° (W) 627 1.5 -19.6°
Drops below altitude 10° 23:47:53 10° 348° (NNW) 1,983 4.6 -20.6°
Sets 23:50:03 0° 348° (NNW) 2,886 5.5 -21.1°
